TimeEDT,TemperatureF,Dew PointF,Humidity,Sea Level PressureIn,VisibilityMPH,Wind Direction,Wind SpeedMPH,Gust SpeedMPH,PrecipitationIn,Events,Conditions,WindDirDegrees,DateUTC
12:15 AM,52.9,44.6,73,30.39,10.0,Calm,Calm,-,N/A,,Unknown,0,2013-04-27 04:15:00
12:35 AM,51.8,44.1,75,30.39,10.0,Calm,Calm,-,N/A,,Unknown,0,2013-04-27 04:35:00
12:55 AM,51.4,44.2,76,30.39,10.0,Calm,Calm,-,N/A,,Unknown,0,2013-04-27 04:55:00
1:15 AM,50.4,43.9,78,30.39,10.0,Calm,Calm,-,N/A,,Unknown,0,2013-04-27 05:15:00
1:35 AM,50.9,44.1,77,30.39,10.0,Calm,Calm,-,N/A,,Unknown,0,2013-04-27 05:35:00
1:55 AM,50.2,44.2,80,30.39,10.0,Calm,Calm,-,N/A,,Unknown,0,2013-04-27 05:55:00
2:15 AM,50.2,44.1,79,30.38,10.0,Calm,Calm,-,N/A,,Unknown,0,2013-04-27 06:15:00
2:35 AM,50.7,44.2,78,30.38,10.0,Calm,Calm,-,N/A,,Clear,0,2013-04-27 06:35:00
2:55 AM,50.0,44.1,80,30.38,10.0,Calm,Calm,-,N/A,,Unknown,0,2013-04-27 06:55:00
3:15 AM,49.8,44.6,82,30.39,10.0,Calm,Calm,-,N/A,,Unknown,0,2013-04-27 07:15:00
3:35 AM,50.0,44.6,82,30.39,10.0,Calm,Calm,-,N/A,,Unknown,0,2013-04-27 07:35:00
3:55 AM,49.3,44.6,84,30.38,10.0,Calm,Calm,-,N/A,,Unknown,0,2013-04-27 07:55:00
4:15 AM,48.6,44.2,85,30.38,10.0,Calm,Calm,-,N/A,,Unknown,0,2013-04-27 08:15:00
4:35 AM,48.2,44.4,87,30.38,10.0,Calm,Calm,-,N/A,,Clear,0,2013-04-27 08:35:00
4:55 AM,48.4,44.8,87,30.39,10.0,Calm,Calm,-,N/A,,Clear,0,2013-04-27 08:55:00
5:15 AM,48.2,44.6,87,30.38,10.0,Calm,Calm,-,N/A,,Clear,0,2013-04-27 09:15:00
5:35 AM,47.7,44.8,90,30.39,10.0,Calm,Calm,-,N/A,,Clear,0,2013-04-27 09:35:00
5:55 AM,47.5,44.8,90,30.39,10.0,Calm,Calm,-,N/A,,Clear,0,2013-04-27 09:55:00
6:55 AM,47.5,45.5,93,30.40,5.0,Calm,Calm,-,N/A,,Clear,0,2013-04-27 10:55:00
7:15 AM,48.7,46.0,90,30.40,10.0,Calm,Calm,-,N/A,,Clear,0,2013-04-27 11:15:00
7:35 AM,50.2,47.7,91,30.40,10.0,Calm,Calm,-,N/A,,Clear,0,2013-04-27 11:35:00
7:55 AM,53.4,46.8,78,30.42,10.0,Calm,Calm,-,N/A,,Clear,0,2013-04-27 11:55:00
8:15 AM,55.2,45.9,71,30.42,10.0,ESE,3.5,-,N/A,,Clear,110,2013-04-27 12:15:00
8:35 AM,57.7,43.9,60,30.41,10.0,ESE,3.5,-,N/A,,Clear,110,2013-04-27 12:35:00
8:55 AM,59.5,42.6,54,30.40,10.0,Calm,Calm,-,N/A,,Clear,0,2013-04-27 12:55:00
9:15 AM,61.5,41.2,47,30.40,10.0,SE,3.5,-,N/A,,Clear,130,2013-04-27 13:15:00
9:35 AM,63.7,41.2,44,30.39,10.0,Calm,Calm,-,N/A,,Clear,0,2013-04-27 13:35:00
9:55 AM,65.3,41.4,42,30.39,10.0,ENE,5.8,-,N/A,,Clear,70,2013-04-27 13:55:00
10:35 AM,66.4,38.1,35,30.40,10.0,East,8.1,-,N/A,,Unknown,90,2013-04-27 14:35:00
10:55 AM,68.0,39.9,36,30.39,10.0,East,8.1,-,N/A,,Unknown,100,2013-04-27 14:55:00
11:15 AM,68.5,39.2,34,30.39,10.0,East,6.9,-,N/A,,Clear,100,2013-04-27 15:15:00
11:35 AM,68.7,39.0,34,30.38,10.0,East,8.1,-,N/A,,Clear,100,2013-04-27 15:35:00
11:55 AM,68.9,38.3,33,30.38,10.0,SE,6.9,-,N/A,,Clear,130,2013-04-27 15:55:00
12:15 PM,69.8,38.7,32,30.37,10.0,East,8.1,-,N/A,,Clear,90,2013-04-27 16:15:00
12:35 PM,69.8,38.1,31,30.35,10.0,East,9.2,-,N/A,,Clear,80,2013-04-27 16:35:00
12:55 PM,70.7,38.3,31,30.34,10.0,ESE,9.2,-,N/A,,Clear,110,2013-04-27 16:55:00
1:15 PM,71.6,38.8,30,30.33,10.0,East,6.9,-,N/A,,Clear,100,2013-04-27 17:15:00
1:35 PM,71.8,38.7,30,30.33,10.0,SE,5.8,-,N/A,,Clear,130,2013-04-27 17:35:00
1:55 PM,72.0,38.7,30,30.33,10.0,SSW,5.8,-,N/A,,Clear,200,2013-04-27 17:55:00
2:15 PM,72.5,38.7,29,30.32,10.0,East,4.6,-,N/A,,Scattered Clouds,90,2013-04-27 18:15:00
2:35 PM,73.0,39.6,30,30.32,10.0,WSW,5.8,-,N/A,,Scattered Clouds,240,2013-04-27 18:35:00
2:55 PM,73.4,39.4,29,30.31,10.0,East,5.8,-,N/A,,Clear,90,2013-04-27 18:55:00
3:15 PM,73.0,40.1,30,30.30,10.0,Calm,Calm,-,N/A,,Scattered Clouds,0,2013-04-27 19:15:00
3:35 PM,73.4,39.2,29,30.29,10.0,ESE,6.9,-,N/A,,Clear,110,2013-04-27 19:35:00
3:55 PM,73.6,40.5,30,30.29,10.0,SE,4.6,-,N/A,,Clear,130,2013-04-27 19:55:00
4:15 PM,72.5,38.8,29,30.28,10.0,East,6.9,-,N/A,,Clear,90,2013-04-27 20:15:00
4:35 PM,72.5,38.8,29,30.28,10.0,ESE,6.9,-,N/A,,Clear,120,2013-04-27 20:35:00
4:55 PM,72.5,39.7,31,30.28,10.0,ESE,9.2,-,N/A,,Clear,110,2013-04-27 20:55:00
5:15 PM,71.6,40.3,32,30.28,10.0,ESE,8.1,-,N/A,,Clear,120,2013-04-27 21:15:00
5:35 PM,70.7,40.8,34,30.29,10.0,ESE,9.2,-,N/A,,Clear,120,2013-04-27 21:35:00
5:55 PM,69.6,41.0,35,30.28,10.0,ESE,9.2,-,N/A,,Clear,120,2013-04-27 21:55:00
6:15 PM,68.9,41.7,37,30.28,10.0,ESE,9.2,-,N/A,,Clear,110,2013-04-27 22:15:00
6:35 PM,67.6,40.8,38,30.28,10.0,East,9.2,-,N/A,,Clear,90,2013-04-27 22:35:00
6:55 PM,66.4,41.0,40,30.28,10.0,East,6.9,-,N/A,,Unknown,90,2013-04-27 22:55:00
7:15 PM,65.3,41.5,42,30.28,10.0,East,6.9,-,N/A,,Unknown,100,2013-04-27 23:15:00
7:35 PM,64.6,40.6,42,30.28,10.0,ESE,8.1,-,N/A,,Unknown,120,2013-04-27 23:35:00
7:55 PM,63.7,39.9,42,30.28,10.0,ESE,5.8,-,N/A,,Unknown,120,2013-04-27 23:55:00
8:15 PM,63.0,40.1,43,30.28,10.0,ESE,4.6,-,N/A,,Unknown,120,2013-04-28 00:15:00
8:35 PM,62.1,40.6,45,30.29,10.0,SE,5.8,-,N/A,,Unknown,130,2013-04-28 00:35:00
8:55 PM,60.3,41.9,51,30.29,10.0,SE,5.8,-,N/A,,Unknown,140,2013-04-28 00:55:00
9:15 PM,60.6,40.5,47,30.30,10.0,SE,5.8,-,N/A,,Unknown,140,2013-04-28 01:15:00
9:35 PM,58.8,41.0,52,30.30,10.0,SSE,4.6,-,N/A,,Unknown,150,2013-04-28 01:35:00
9:55 PM,58.6,40.1,50,30.30,10.0,SSE,5.8,-,N/A,,Unknown,150,2013-04-28 01:55:00
10:15 PM,57.4,39.9,52,30.30,10.0,SSE,4.6,-,N/A,,Unknown,150,2013-04-28 02:15:00
10:35 PM,57.2,39.6,52,30.29,10.0,SE,5.8,-,N/A,,Clear,140,2013-04-28 02:35:00
10:55 PM,56.8,40.1,54,30.29,10.0,SSE,4.6,-,N/A,,Clear,150,2013-04-28 02:55:00
11:15 PM,56.7,40.5,55,30.29,10.0,SSE,4.6,-,N/A,,Unknown,150,2013-04-28 03:15:00
11:35 PM,55.6,41.4,59,30.29,10.0,SSE,3.5,-,N/A,,Unknown,150,2013-04-28 03:35:00
11:55 PM,54.9,41.4,60,30.29,10.0,Calm,Calm,-,N/A,,Unknown,0,2013-04-28 03:55:00